Time,TemperatureF,DewpointF,PressureIn,WindDirection,WindDirectionDegrees,WindSpeedMPH,WindSpeedGustMPH,Humidity,HourlyPrecipIn,Conditions,Clouds,dailyrainin,SoftwareType,DateUTC
2013-03-11 00:02:00,44.4,41.2,27.84,WSW,248,8.0,10.0,88,-99.99,,,-99.99,meteohub,2013-03-10 23:02:00,
2013-03-11 00:17:00,44.4,41.2,27.84,WSW,248,9.0,12.0,88,-99.99,,,-99.99,meteohub,2013-03-10 23:17:00,
2013-03-11 00:32:00,44.2,41.0,27.84,SW,225,7.0,10.0,88,-99.99,,,-99.99,meteohub,2013-03-10 23:32:00,
2013-03-11 00:47:00,44.1,40.8,27.85,SW,225,9.0,9.0,88,-99.99,,,-99.99,meteohub,2013-03-10 23:47:00,
2013-03-11 01:02:00,43.7,40.5,27.85,WSW,248,9.0,11.0,88,-99.99,,,-99.99,meteohub,2013-03-11 00:02:00,
2013-03-11 01:17:00,43.7,40.6,27.86,West,270,8.0,9.0,89,-99.99,,,-99.99,meteohub,2013-03-11 00:17:00,
2013-03-11 01:32:00,42.1,38.8,27.86,NNW,338,10.0,16.0,88,-99.99,,,-99.99,meteohub,2013-03-11 00:32:00,
2013-03-11 01:47:00,40.6,37.0,27.86,NNW,338,15.0,16.0,87,-99.99,,,-99.99,meteohub,2013-03-11 00:47:00,
2013-03-11 02:02:00,39.6,36.3,27.86,NW,315,8.0,15.0,88,-99.99,,,-99.99,meteohub,2013-03-11 01:02:00,
2013-03-11 02:17:00,39.0,36.1,27.86,NNW,338,10.0,12.0,89,-99.99,,,-99.99,meteohub,2013-03-11 01:17:00,
2013-03-11 02:32:00,37.8,34.5,27.86,NW,315,10.0,11.0,88,-99.99,,,-99.99,meteohub,2013-03-11 01:32:00,
2013-03-11 02:47:00,37.2,34.0,27.84,NNW,338,10.0,12.0,88,-99.99,,,-99.99,meteohub,2013-03-11 01:47:00,
2013-03-11 03:02:00,36.3,33.1,27.85,North,0,10.0,14.0,88,-99.99,,,-99.99,meteohub,2013-03-11 02:02:00,
2013-03-11 03:17:00,35.4,32.2,27.86,NNW,338,8.0,12.0,88,-99.99,,,-99.99,meteohub,2013-03-11 02:17:00,
2013-03-11 03:32:00,34.7,31.5,27.86,NNW,338,12.0,13.0,88,-99.99,,,-99.99,meteohub,2013-03-11 02:32:00,
2013-03-11 03:47:00,33.6,30.4,27.86,NNW,338,11.0,13.0,88,-99.99,,,-99.99,meteohub,2013-03-11 02:47:00,
2013-03-11 04:02:00,33.3,30.0,27.86,NNW,338,8.0,11.0,88,-99.99,,,-99.99,meteohub,2013-03-11 03:02:00,
2013-03-11 04:18:00,32.7,29.5,27.86,NNW,338,7.0,10.0,88,-99.99,,,-99.99,meteohub,2013-03-11 03:18:00,
2013-03-11 04:33:00,32.5,29.1,27.86,NNW,338,6.0,11.0,87,-99.99,,,-99.99,meteohub,2013-03-11 03:33:00,
2013-03-11 05:02:00,31.8,28.4,27.87,NNW,338,9.0,12.0,87,-99.99,,,-99.99,meteohub,2013-03-11 04:02:00,
2013-03-11 05:17:00,31.1,27.7,27.88,NNW,338,11.0,14.0,87,-99.99,,,-99.99,meteohub,2013-03-11 04:17:00,
2013-03-11 05:32:00,30.9,27.5,27.88,NNW,338,11.0,11.0,87,-99.99,,,-99.99,meteohub,2013-03-11 04:32:00,
2013-03-11 05:47:00,30.6,27.0,27.87,NNW,338,9.0,11.0,86,-99.99,,,-99.99,meteohub,2013-03-11 04:47:00,
2013-03-11 06:02:00,30.4,26.8,27.88,NNW,338,13.0,13.0,86,-99.99,,,-99.99,meteohub,2013-03-11 05:02:00,
2013-03-11 06:17:00,30.4,26.8,27.89,NNW,338,9.0,13.0,86,-99.99,,,-99.99,meteohub,2013-03-11 05:17:00,
2013-03-11 06:32:00,30.6,26.6,27.89,NNW,338,5.0,9.0,85,-99.99,,,-99.99,meteohub,2013-03-11 05:32:00,
2013-03-11 06:47:00,30.6,26.2,27.88,NNW,338,6.0,9.0,84,-99.99,,,-99.99,meteohub,2013-03-11 05:47:00,
2013-03-11 07:02:00,30.7,26.2,27.88,NNW,338,7.0,10.0,83,-99.99,,,-99.99,meteohub,2013-03-11 06:02:00,
2013-03-11 07:17:00,30.4,25.5,27.91,NNW,338,7.0,10.0,82,-99.99,,,-99.99,meteohub,2013-03-11 06:17:00,
2013-03-11 07:32:00,30.0,25.2,27.91,NNW,338,8.0,14.0,82,-99.99,,,-99.99,meteohub,2013-03-11 06:32:00,
2013-03-11 07:47:00,29.7,24.8,27.90,NNW,338,8.0,11.0,82,-99.99,,,-99.99,meteohub,2013-03-11 06:47:00,
2013-03-11 08:02:00,29.8,25.3,27.90,NNW,338,7.0,10.0,83,-99.99,,,-99.99,meteohub,2013-03-11 07:02:00,
2013-03-11 08:17:00,30.2,25.3,27.91,NNW,338,10.0,10.0,82,-99.99,,,-99.99,meteohub,2013-03-11 07:17:00,
2013-03-11 08:32:00,30.4,25.5,27.91,NNW,338,9.0,10.0,82,-99.99,,,-99.99,meteohub,2013-03-11 07:32:00,
2013-03-11 08:47:00,30.4,25.3,27.91,NNW,338,9.0,9.0,81,-99.99,,,-99.99,meteohub,2013-03-11 07:47:00,
2013-03-11 09:02:00,30.0,25.0,27.93,NNW,338,7.0,9.0,81,-99.99,,,-99.99,meteohub,2013-03-11 08:02:00,
2013-03-11 09:17:00,30.2,25.2,27.92,NNW,338,6.0,11.0,81,-99.99,,,-99.99,meteohub,2013-03-11 08:17:00,
2013-03-11 09:32:00,30.4,25.3,27.92,NNW,338,6.0,9.0,81,-99.99,,,-99.99,meteohub,2013-03-11 08:32:00,
2013-03-11 09:47:00,31.1,25.7,27.93,NNW,338,5.0,8.0,80,-99.99,,,-99.99,meteohub,2013-03-11 08:47:00,
2013-03-11 10:02:00,30.6,24.8,27.94,NNW,338,8.0,11.0,79,-99.99,,,-99.99,meteohub,2013-03-11 09:02:00,
2013-03-11 10:17:00,31.1,25.7,27.94,NNW,338,8.0,10.0,80,-99.99,,,-99.99,meteohub,2013-03-11 09:17:00,
2013-03-11 10:32:00,31.3,25.5,27.94,NNW,338,4.0,8.0,79,-99.99,,,-99.99,meteohub,2013-03-11 09:32:00,
2013-03-11 10:47:00,31.5,25.7,27.95,NNW,338,10.0,10.0,79,-99.99,,,-99.99,meteohub,2013-03-11 09:47:00,
2013-03-11 11:02:00,31.8,26.1,27.94,NNW,338,5.0,10.0,79,-99.99,,,-99.99,meteohub,2013-03-11 10:02:00,
2013-03-11 11:17:00,31.8,26.1,27.94,NNW,338,8.0,9.0,79,-99.99,,,-99.99,meteohub,2013-03-11 10:17:00,
2013-03-11 11:32:00,32.2,26.4,27.94,NNW,338,5.0,10.0,79,-99.99,,,-99.99,meteohub,2013-03-11 10:32:00,
2013-03-11 11:47:00,32.5,26.4,27.95,NNW,338,6.0,10.0,78,-99.99,,,-99.99,meteohub,2013-03-11 10:47:00,
2013-03-11 12:02:00,32.7,26.6,27.96,NNW,338,5.0,7.0,78,-99.99,,,-99.99,meteohub,2013-03-11 11:02:00,
2013-03-11 12:17:00,32.5,26.1,27.96,NNW,338,4.0,6.0,77,-99.99,,,-99.99,meteohub,2013-03-11 11:17:00,
2013-03-11 12:32:00,32.7,26.6,27.96,NNW,338,6.0,10.0,78,-99.99,,,-99.99,meteohub,2013-03-11 11:32:00,
2013-03-11 12:47:00,32.5,26.4,27.96,NNW,338,6.0,9.0,78,-99.99,,,-99.99,meteohub,2013-03-11 11:47:00,
2013-03-11 13:02:00,32.5,26.4,27.97,NNW,338,6.0,7.0,78,-99.99,,,-99.99,meteohub,2013-03-11 12:02:00,
2013-03-11 13:17:00,32.2,26.1,27.97,NNW,338,6.0,7.0,78,-99.99,,,-99.99,meteohub,2013-03-11 12:17:00,
2013-03-11 13:32:00,31.8,25.7,27.97,North,0,3.0,7.0,78,-99.99,,,-99.99,meteohub,2013-03-11 12:32:00,
2013-03-11 13:47:00,31.8,25.7,27.97,North,0,4.0,5.0,78,-99.99,,,-99.99,meteohub,2013-03-11 12:47:00,
2013-03-11 14:02:00,32.2,26.1,27.97,North,0,5.0,7.0,78,-99.99,,,-99.99,meteohub,2013-03-11 13:02:00,
2013-03-11 14:17:00,32.2,26.1,27.98,North,0,5.0,6.0,78,-99.99,,,-99.99,meteohub,2013-03-11 13:17:00,
2013-03-11 14:32:00,32.2,26.1,27.98,North,0,2.0,7.0,78,-99.99,,,-99.99,meteohub,2013-03-11 13:32:00,
2013-03-11 14:47:00,32.0,25.9,27.97,NNE,23,6.0,7.0,78,-99.99,,,-99.99,meteohub,2013-03-11 13:47:00,
2013-03-11 15:02:00,32.0,25.9,27.99,NNE,23,5.0,9.0,78,-99.99,,,-99.99,meteohub,2013-03-11 14:02:00,
2013-03-11 15:17:00,31.6,25.5,27.97,NNW,338,9.0,10.0,78,-99.99,,,-99.99,meteohub,2013-03-11 14:17:00,
2013-03-11 15:32:00,32.2,26.1,27.97,NNE,23,4.0,9.0,78,-99.99,,,-99.99,meteohub,2013-03-11 14:32:00,
2013-03-11 15:47:00,31.8,25.5,27.98,North,0,5.0,6.0,77,-99.99,,,-99.99,meteohub,2013-03-11 14:47:00,
2013-03-11 16:02:00,31.3,25.2,27.98,NNE,23,8.0,8.0,78,-99.99,,,-99.99,meteohub,2013-03-11 15:02:00,
2013-03-11 16:17:00,31.3,25.2,27.98,WNW,293,5.0,8.0,78,-99.99,,,-99.99,meteohub,2013-03-11 15:17:00,
2013-03-11 16:32:00,31.1,25.0,27.98,NW,315,5.0,10.0,78,-99.99,,,-99.99,meteohub,2013-03-11 15:32:00,
2013-03-11 16:47:00,30.7,24.6,27.98,NNE,23,7.0,9.0,78,-99.99,,,-99.99,meteohub,2013-03-11 15:47:00,
2013-03-11 17:02:00,30.7,25.0,27.97,NE,45,4.0,9.0,79,-99.99,,,-99.99,meteohub,2013-03-11 16:02:00,
2013-03-11 17:17:00,30.6,24.8,27.97,NNE,23,8.0,8.0,79,-99.99,,,-99.99,meteohub,2013-03-11 16:17:00,
2013-03-11 17:32:00,30.4,24.6,27.97,NW,315,7.0,9.0,79,-99.99,,,-99.99,meteohub,2013-03-11 16:32:00,
2013-03-11 17:47:00,30.4,24.6,27.98,NNE,23,6.0,10.0,79,-99.99,,,-99.99,meteohub,2013-03-11 16:47:00,
2013-03-11 18:02:00,30.0,24.6,27.97,NNE,23,8.0,13.0,80,-99.99,,,-99.99,meteohub,2013-03-11 17:02:00,
2013-03-11 18:17:00,29.7,23.9,27.97,NNW,338,8.0,12.0,79,-99.99,,,-99.99,meteohub,2013-03-11 17:17:00,
2013-03-11 18:32:00,29.3,23.5,27.97,North,0,5.0,10.0,79,-99.99,,,-99.99,meteohub,2013-03-11 17:32:00,
2013-03-11 18:47:00,29.1,23.7,27.98,NNW,338,8.0,11.0,80,-99.99,,,-99.99,meteohub,2013-03-11 17:47:00,
2013-03-11 19:02:00,29.3,23.9,27.98,NNW,338,9.0,9.0,80,-99.99,,,-99.99,meteohub,2013-03-11 18:02:00,
2013-03-11 19:17:00,28.9,23.5,27.98,NNW,338,4.0,9.0,80,-99.99,,,-99.99,meteohub,2013-03-11 18:17:00,
2013-03-11 19:32:00,28.8,23.4,27.98,NW,315,4.0,9.0,80,-99.99,,,-99.99,meteohub,2013-03-11 18:32:00,
2013-03-11 19:47:00,28.6,23.2,27.97,NNE,23,5.0,7.0,80,-99.99,,,-99.99,meteohub,2013-03-11 18:47:00,
2013-03-11 20:02:00,28.6,23.2,27.98,NNW,338,5.0,6.0,80,-99.99,,,-99.99,meteohub,2013-03-11 19:02:00,
2013-03-11 20:17:00,28.9,23.5,27.98,NNE,23,3.0,8.0,80,-99.99,,,-99.99,meteohub,2013-03-11 19:17:00,
2013-03-11 20:32:00,28.6,23.2,27.98,NNE,23,7.0,9.0,80,-99.99,,,-99.99,meteohub,2013-03-11 19:32:00,
2013-03-11 20:47:00,28.6,23.2,27.98,NW,315,5.0,7.0,80,-99.99,,,-99.99,meteohub,2013-03-11 19:47:00,
2013-03-11 21:02:00,28.6,23.2,27.98,North,0,3.0,6.0,80,-99.99,,,-99.99,meteohub,2013-03-11 20:02:00,
2013-03-11 21:17:00,28.6,23.2,27.98,NNW,338,4.0,4.0,80,-99.99,,,-99.99,meteohub,2013-03-11 20:17:00,
2013-03-11 21:32:00,28.4,23.0,27.98,NW,315,4.0,7.0,80,-99.99,,,-99.99,meteohub,2013-03-11 20:32:00,
2013-03-11 21:47:00,28.2,22.8,27.98,East,90,3.0,7.0,80,-99.99,,,-99.99,meteohub,2013-03-11 20:47:00,
2013-03-11 22:02:00,28.2,22.8,27.98,NNE,23,7.0,10.0,80,-99.99,,,-99.99,meteohub,2013-03-11 21:02:00,
2013-03-11 22:17:00,28.2,22.8,27.97,SSE,158,6.0,7.0,80,-99.99,,,-99.99,meteohub,2013-03-11 21:17:00,
2013-03-11 22:32:00,28.2,22.8,27.97,NNE,23,3.0,8.0,80,-99.99,,,-99.99,meteohub,2013-03-11 21:32:00,
2013-03-11 22:47:00,28.2,23.2,27.97,NNE,23,3.0,6.0,81,-99.99,,,-99.99,meteohub,2013-03-11 21:47:00,
2013-03-11 23:02:00,27.9,22.5,27.97,North,0,5.0,5.0,80,-99.99,,,-99.99,meteohub,2013-03-11 22:02:00,
2013-03-11 23:17:00,27.9,22.8,27.96,NNW,338,4.0,6.0,81,-99.99,,,-99.99,meteohub,2013-03-11 22:17:00,
2013-03-11 23:32:00,27.9,22.8,27.96,ENE,68,4.0,5.0,81,-99.99,,,-99.99,meteohub,2013-03-11 22:32:00,
2013-03-11 23:47:00,27.9,22.8,27.96,North,0,2.0,7.0,81,-99.99,,,-99.99,meteohub,2013-03-11 22:47:00,